Weather History for Spokane Fairchild, WA

Change the Weather History Date:

Wednesday, April 3, 2013

  Actual Average Record
Temperature  
Mean Temperature 50 °F -  
Max Temperature 62 °F 49 °F 62 °F (2013)
Min Temperature 39 °F 31 °F 22 °F (2007)
Degree Days  
Heating Degree Days 14    
Moisture  
Dew Point 39 °F    
Average Humidity 74    
Maximum Humidity 100    
Minimum Humidity 38    
Precipitation  
Precipitation 0.00 in - - ()
Sea Level Pressure  
Sea Level Pressure 30.07 in    
Wind  
Wind Speed 9 mph (SSE)    
Max Wind Speed 16 mph    
Max Gust Speed -    
Visibility 10 miles    
Events      
Averages and records for this station are not official NWS values.
T = Trace of Precipitation, MM = Missing Value Source: NWS Daily Summary

Daily Weather History Graph

Daily Weather History Graph

Search for Another Location

Airport:

Trip Planner

Search our weather history database for the weather conditions in past years. The results will help you decide how hot, cold, wet, or windy it might be!

Date:

Astronomy

Apr. 03, 2013 Rise Set
Actual Time 6:24 AM PDT 7:23 PM PDT
Civil Twilight 5:53 AM PDT 7:55 PM PDT
Nautical Twilight 5:15 AM PDT 8:32 PM PDT
Astronomical Twilight 4:36 AM PDT 9:12 PM PDT
Moon 2:36 AM PDT (4/3) 12:14 PM PDT (4/3)
Length of Visible Light 14h 02m
Length of Day
12h 59m
Last Quarter, 43% of the Moon is Illuminated
Apr 3
Last Quarter
Apr 10
New
Apr 18
First Quarter
Apr 25
Full
May 2
Last Quarter

Hourly Weather History & Observations

Time (PDT) Temp. Windchill Dew Point Humidity Pressure Visibility Wind Dir Wind Speed Gust Speed Precip Events Conditions
12:58 AM 44.6 °F 40.2 °F 40.1 °F 84% 30.05 in 10.0 mi SSE 8.1 mph - N/A   Clear
1:58 AM 43.0 °F 36.4 °F 39.7 °F 88% 30.06 in 10.0 mi South 12.7 mph - N/A   Clear
2:22 AM 44.6 °F 38.1 °F 41.0 °F 87% 30.04 in 10.0 mi South 13.8 mph - N/A   Clear
2:32 AM 42.8 °F 35.1 °F 41.0 °F 93% 30.04 in 10.0 mi South 16.1 mph - N/A   Clear
2:58 AM 43.5 °F 36.7 °F 40.8 °F 90% 30.05 in 10.0 mi South 13.8 mph - 0.00 in   Clear
3:58 AM 42.1 °F 36.1 °F 39.6 °F 91% 30.06 in 10.0 mi South 10.4 mph - N/A   Clear
4:27 AM 41.0 °F 36.4 °F 39.2 °F 93% 30.05 in 10.0 mi SSE 6.9 mph - N/A   Clear
4:37 AM 41.0 °F 35.8 °F 39.2 °F 93% 30.05 in 10.0 mi SSE 8.1 mph - N/A   Clear
4:58 AM 41.2 °F 38.2 °F 39.4 °F 93% 30.08 in 10.0 mi ESE 4.6 mph - 0.00 in   Clear
5:58 AM 39.6 °F 36.3 °F 38.8 °F 97% 30.09 in 10.0 mi ENE 4.6 mph - N/A   Clear
6:20 AM 39.2 °F 34.2 °F 39.2 °F 100% 30.07 in 10.0 mi SE 6.9 mph - N/A   Clear
6:29 AM 39.2 °F 35.0 °F 39.2 °F 100% 30.08 in 10.0 mi SE 5.8 mph - N/A   Clear
6:58 AM 39.0 °F 35.7 °F 38.3 °F 97% 30.11 in 10.0 mi ESE 4.6 mph - 0.00 in   Clear
7:58 AM 43.7 °F 40.3 °F 41.2 °F 91% 30.11 in 10.0 mi SSE 5.8 mph - N/A   Clear
8:02 AM 44.6 °F 39.2 °F 41.0 °F 87% 30.09 in 10.0 mi South 10.4 mph - N/A   Clear
8:11 AM 44.6 °F 40.2 °F 41.0 °F 87% 30.09 in 10.0 mi SSE 8.1 mph - N/A   Clear
8:58 AM 46.9 °F - 41.5 °F 81% 30.11 in 10.0 mi SSE 8.1 mph - 0.00 in   Clear
9:58 AM 50.5 °F - 40.5 °F 68% 30.12 in 10.0 mi South 12.7 mph - N/A   Partly Cloudy
10:58 AM 53.6 °F - 40.6 °F 62% 30.12 in 10.0 mi SSW 10.4 mph - N/A   Clear
11:58 AM 55.0 °F - 42.3 °F 62% 30.11 in 10.0 mi South 11.5 mph - N/A   Scattered Clouds
12:58 PM 57.6 °F - 42.6 °F 57% 30.09 in 10.0 mi South 10.4 mph - N/A   Scattered Clouds
1:58 PM 59.2 °F - 41.5 °F 52% 30.08 in 10.0 mi Variable 5.8 mph - N/A   Partly Cloudy
2:58 PM 59.2 °F - 40.3 °F 50% 30.09 in 10.0 mi South 10.4 mph - N/A   Partly Cloudy
3:58 PM 62.2 °F - 37.4 °F 40% 30.06 in 10.0 mi SW 9.2 mph - N/A   Mostly Cloudy
4:58 PM 61.0 °F - 35.4 °F 38% 30.05 in 10.0 mi South 5.8 mph - N/A   Clear
5:58 PM 59.2 °F - 36.9 °F 43% 30.05 in 10.0 mi SSW 8.1 mph - N/A   Clear
6:58 PM 56.3 °F - 38.3 °F 51% 30.06 in 10.0 mi South 6.9 mph - N/A   Clear
7:58 PM 54.5 °F - 37.9 °F 54% 30.04 in 10.0 mi South 4.6 mph - N/A   Clear
8:58 PM 51.1 °F - 37.0 °F 59% 30.03 in 10.0 mi South 5.8 mph - N/A   Clear
9:58 PM 48.9 °F - 36.7 °F 63% 30.03 in 10.0 mi South 3.5 mph - N/A   Clear
10:58 PM 48.4 °F - 36.1 °F 63% 30.01 in 10.0 mi SSE 2.3 mph - N/A   Scattered Clouds
11:58 PM 46.9 °F - 36.1 °F 66% 30.01 in 10.0 mi Calm Calm - N/A   Clear